Wetbulb
62.91 67.67 68.14 66.99 66.25 67.42 68.68 69.56 69.65 70.16 71.21 70.83 70.40 70.38 69.43 70.43 70.55 70.81 70.92 70.06 69.96 69.71 68.88 67.84 67.23 67.53 66.19 65.51 65.73 66.11 65.55 64.84 64.55 63.02 62.22 62.72 64.50 63.69 63.69 64.21 63.86 63.90 64.41
58.91 64.59 67.88 67.11 66.71 67.17 68.46 68.90 69.43 69.84 70.58 71.06 70.99 70.70 70.63 70.42 71.00 70.90 70.71 70.98 70.37 69.98 69.28 68.35 67.19 66.88 66.22 65.53 65.77 65.31 64.24 64.34 65.25 61.81 60.67 58.13 60.02 62.46 63.64 63.45 63.65 63.65 63.96
56.43 60.56 66.03 66.94 67.68 67.25 68.43 68.36 69.60 69.90 70.07 70.85 71.03 70.81 70.58 70.78 70.04 70.18 69.94 70.56 70.53 70.51 69.80 68.97 68.30 67.08 66.36 65.26 65.50 65.82 64.70 62.84 64.02 64.44 61.47 58.13 56.62 59.81 62.97 63.24 63.95 64.09 65.59
56.59 57.63 60.81 65.47 67.04 67.57 69.48 69.21 69.17 70.26 70.20 70.25 69.89 69.34 68.37 67.38 68.97 69.32 70.26 69.90 70.62 70.06 70.40 69.88 69.16 68.01 67.43 65.61 65.48 66.46 65.67 64.26 62.72 63.50 64.90 63.43 62.10 59.12 58.02 64.67 64.60 66.36 66.04
56.32 56.25 58.16 61.51 66.25 67.80 68.37 70.32 70.39 70.35 70.39 70.36 69.78 69.24 68.77 68.97 69.35 69.73 69.44 70.05 70.29 70.29 70.18 70.23 69.86 68.83 68.16 67.32 66.06 66.03 65.77 66.01 64.00 63.57 63.29 63.12 63.16 62.38 60.67 58.08 60.21 64.73 66.41
55.62 56.79 58.05 59.97 60.06 62.41 62.95 65.14 65.89 68.08 71.25 70.65 70.07 69.50 68.89 68.87 68.80 69.10 69.03 69.35 70.17 70.16 69.94 70.21 69.89 69.82 68.98 68.13 67.68 67.07 66.39 65.99 65.72 64.96 64.10 63.41 62.22 61.95 61.93 61.27 61.33 61.41 63.51
55.03 55.41 56.10 56.73 57.53 58.52 61.82 63.58 64.46 63.37 65.47 69.68 71.47 70.51 70.21 70.27 69.51 69.32 69.72 69.51 69.56 69.81 69.74 69.83 69.62 69.59 69.79 69.28 68.78 67.82 67.07 66.92 65.76 65.98 65.36 65.32 64.62 64.39 64.37 63.11 61.80 61.46 63.10
57.43 57.28 57.38 58.53 58.40 59.68 59.85 61.06 63.72 63.73 64.50 64.86 64.78 70.75 71.87 70.99 71.12 70.81 70.49 70.57 70.30 70.54 70.85 70.51 70.20 70.02 69.86 69.87 69.21 68.89 68.03 67.19 67.72 66.29 66.59 66.14 66.01 65.78 65.22 63.86 62.67 60.42 60.78
56.47 57.63 61.36 58.21 59.22 60.16 60.95 63.48 60.86 64.05 65.14 65.04 64.63 64.98 68.72 71.85 70.93 71.52 71.27 71.27 71.56 71.39 71.34 71.46 70.46 70.29 70.18 69.82 69.38 68.67 67.98 68.19 67.37 67.61 67.10 66.75 66.54 66.82 67.43 66.30 64.86 62.22 59.29
55.06 55.98 57.40 58.62 59.34 60.75 61.23 63.57 63.71 62.63 63.60 64.04 64.69 63.88 65.07 70.31 72.12 71.68 70.97 71.19 70.68 71.85 71.17 71.01 71.00 70.42 70.16 69.92 69.37 68.76 68.66 67.79 67.77 67.45 67.12 67.08 67.66 67.61 66.85 66.02 65.04 64.16 63.33
55.53 55.94 56.88 57.63 59.69 60.71 61.88 64.01 64.31 63.60 64.27 65.58 63.39 64.69 63.75 67.07 71.35 71.44 70.83 70.97 71.02 70.66 71.28 70.90 70.46 70.06 69.72 69.75 68.97 68.67 67.98 67.47 67.26 67.33 67.70 67.78 67.66 66.44 65.92 65.56 64.95 63.93 63.23
54.29 54.84 55.95 57.14 57.62 57.95 60.28 60.71 63.24 64.62 65.77 66.87 66.39 66.17 66.49 66.86 66.74 69.21 70.59 70.52 70.47 70.68 71.06 70.73 70.28 70.11 69.38 69.40 68.80 68.37 68.01 67.25 66.81 66.89 66.77 66.74 65.91 66.06 65.22 64.65 63.61 63.27 62.49
53.46 54.38 54.37 54.57 56.48 57.23 58.79 58.65 59.55 61.76 64.75 65.70 66.68 67.41 65.95 65.25 64.84 66.96 69.00 69.80 69.85 69.86 70.32 70.51 70.19 70.21 69.70 69.23 69.01 68.79 67.64 66.85 66.80 66.92 66.70 66.14 65.45 64.75 63.86 63.45 62.23 60.51 56.22
52.28 53.27 54.63 55.65 56.48 57.91 58.24 58.55 58.79 59.54 60.65 63.34 64.47 64.82 66.64 66.50 65.21 65.59 66.73 69.06 69.46 69.21 69.52 69.90 70.02 70.08 70.17 69.70 69.82 69.27 67.51 66.61 66.53 67.03 66.47 65.40 64.42 63.65 61.85 59.26 57.77 54.91 54.35
50.88 51.96 52.64 54.66 56.04 56.01 56.63 57.21 57.96 58.85 59.94 59.84 62.22 63.84 66.25 67.12 66.48 66.73 67.36 67.95 68.99 69.12 69.27 69.39 69.76 70.02 70.03 69.77 69.81 68.35 67.17 66.63 65.75 63.78 63.04 62.55 59.89 54.29 55.84 56.60 54.31 54.43 53.01
50.78 51.62 52.47 53.31 54.03 55.44 55.99 56.21 56.63 58.30 59.41 59.75 59.89 63.77 64.83 66.46 65.89 65.94 66.88 67.93 68.31 68.91 68.95 68.79 69.17 69.16 69.02 54.13 52.86 62.38 66.68 64.97 60.30 56.12 51.49 50.57 48.79 47.04 45.42 46.69 46.69 51.91 53.06
49.47 50.01 51.14 51.55 52.29 53.58 55.85 55.68 56.86 57.92 57.66 57.68 58.60 61.07 63.19 64.81 65.32 65.62 65.72 65.73 66.48 67.54 68.19 68.51 68.94 69.11 66.29 48.14 49.41 50.50 63.50 60.01 57.57 52.93 49.89 47.67 46.75 46.57 44.49 39.82 39.80 39.25 40.10
49.71 50.50 50.80 51.98 53.02 53.47 53.61 55.71 56.37 55.03 54.93 55.84 57.19 58.59 61.29 63.31 65.07 64.28 64.17 63.71 63.81 63.46 63.43 63.54 63.42 59.82 54.21 46.15 47.24 47.42 59.12 55.94 52.98 51.08 49.66 48.19 46.84 46.42 46.48 45.86 42.23 39.10 38.28
49.96 50.64 52.75 53.40 52.77 52.56 53.60 54.34 55.82 54.51 54.10 53.85 55.48 56.90 60.07 62.28 63.13 63.54 62.55 63.32 62.00 61.13 60.65 60.05 60.12 56.76 50.82 42.52 45.61 51.31 53.65 50.29 46.66 45.77 45.59 46.39 45.34 42.44 43.79 41.71 36.49 34.35 33.43
49.38 49.66 51.61 52.35 52.05 52.23 53.01 53.19 52.59 52.84 52.69 54.00 53.93 56.67 57.40 59.01 62.06 62.28 62.66 61.22 61.12 59.92 57.73 58.05 58.67 50.10 52.12 41.25 43.43 48.88 45.75 39.08 39.26 37.45 39.26 40.17 40.33 38.64 39.39 39.94 36.51 34.70 33.44
47.93 48.96 49.28 49.74 50.72 52.14 52.17 51.53 52.01 51.70 53.02 54.49 54.67 55.19 56.83 57.36 58.11 61.32 61.73 61.28 59.97 57.39 55.28 53.67 52.76 50.35 49.59 45.03 41.80 42.89 47.06 41.96 38.88 37.43 35.63 36.18 37.82 38.26 38.70 38.10 35.44 34.15 34.15
46.14 47.16 47.09 47.83 49.56 50.59 50.50 50.37 50.97 52.67 53.62 53.81 53.57 53.29 53.96 55.58 56.83 58.18 61.12 59.56 55.24 52.24 48.31 44.68 40.17 40.17 44.45 41.98 39.61 41.24 43.76 41.32 40.54 37.25 35.78 35.06 37.07 37.44 37.07 35.71 35.48 34.57 34.00
44.87 45.81 45.63 46.42 47.90 49.23 49.80 48.80 50.30 52.47 52.93 52.32 52.24 52.10 52.34 53.55 54.58 57.21 58.28 54.57 53.39 51.42 46.08 42.82 41.42 38.54 37.45 41.33 38.70 39.80 39.00 38.87 39.72 37.05 35.81 35.57 36.09 35.60 34.08 34.56 34.18 33.47 34.11
44.10 44.42 44.05 44.26 45.45 47.49 48.82 49.51 50.36 51.32 51.78 51.04 51.78 51.23 50.93 52.14 54.02 56.66 55.70 54.11 51.92 50.66 46.51 43.80 42.35 39.67 38.44 39.49 39.00 38.42 39.61 34.15 36.04 34.20 34.56 34.62 34.20 34.25 33.65 33.23 33.87 34.57 34.51
43.07 43.03 42.61 42.68 43.57 45.58 46.58 48.61 49.55 50.24 49.91 50.56 50.95 50.40 50.28 51.31 52.39 56.02 51.85 53.15 53.64 51.46 47.80 45.97 44.53 40.28 38.77 39.34 39.84 39.97 38.04 37.12 35.39 34.59 34.12 34.14 33.91 32.95 33.29 32.87 34.26 34.86 34.77
41.17 40.49 40.86 41.53 42.58 43.59 44.42 45.74 47.87 49.61 49.12 48.89 49.54 49.41 50.83 51.95 53.75 52.38 44.96 36.66 36.23 39.62 40.71 41.44 44.69 42.96 42.32 38.22 38.23 38.23 36.35 34.86 34.00 35.33 33.90 33.61 33.96 33.56 34.33 33.95 33.64 35.29 36.00
MSLP
997.16 997.83 998.71 999.48 1000.44 1001.51 1002.88 1004.34 1005.78 1006.72 1007.78 1008.62 1009.12 1009.48 1009.55 1009.98 1010.32 1010.65 1010.71 1011.25 1011.74 1012.41 1013.07 1013.73 1014.15 1014.34 1014.63 1014.87 1015.24 1015.63 1016.07 1016.38 1016.56 1017.13 1017.01 1016.87 1016.61 1016.63 1016.58 1016.47 1016.57 1016.55 1016.53
996.49 996.98 997.84 998.78 999.88 1000.82 1002.14 1003.26 1004.58 1005.86 1006.72 1007.47 1007.98 1008.60 1008.89 1009.26 1009.52 1010.00 1010.16 1010.39 1010.89 1011.50 1012.10 1012.70 1013.19 1013.63 1014.04 1014.37 1014.62 1014.98 1015.54 1015.90 1016.00 1016.60 1017.09 1016.98 1016.68 1016.19 1016.08 1016.03 1016.10 1016.11 1015.99
996.18 996.40 997.02 998.02 999.11 1000.20 1001.33 1002.55 1003.54 1004.60 1005.67 1006.55 1007.51 1008.08 1008.65 1008.83 1008.99 1009.07 1009.36 1009.43 1009.76 1010.36 1010.99 1011.58 1012.30 1012.86 1013.27 1013.56 1013.89 1014.25 1014.71 1015.15 1015.44 1015.63 1016.05 1016.47 1016.23 1015.80 1015.25 1015.36 1015.34 1015.51 1015.67
996.02 996.27 996.42 997.12 998.18 999.20 1000.22 1001.44 1002.63 1003.65 1004.49 1005.51 1006.40 1006.77 1007.00 1007.28 1007.22 1007.70 1008.05 1008.55 1008.87 1009.45 1009.94 1010.61 1011.44 1012.01 1012.46 1012.82 1013.09 1013.45 1013.78 1014.39 1014.71 1015.03 1014.91 1014.90 1015.08 1015.64 1015.35 1014.88 1014.95 1015.08 1015.38
995.84 996.05 996.42 996.51 997.46 998.43 999.59 1000.47 1001.58 1002.61 1003.49 1004.36 1004.88 1005.66 1006.15 1006.26 1006.45 1006.77 1007.20 1007.60 1008.04 1008.45 1009.03 1009.75 1010.36 1010.96 1011.48 1011.83 1012.29 1012.65 1013.01 1013.27 1013.83 1013.94 1014.29 1014.61 1014.85 1015.14 1015.62 1015.42 1015.29 1015.23 1014.96
995.91 996.20 996.17 996.68 997.08 997.98 998.80 999.57 1000.36 1001.22 1002.22 1003.05 1003.84 1004.31 1004.86 1005.32 1005.59 1005.82 1006.11 1006.49 1006.85 1007.50 1008.08 1008.64 1009.30 1009.88 1010.51 1010.88 1011.19 1011.71 1012.09 1012.44 1012.80 1013.19 1013.43 1013.46 1014.03 1014.39 1014.78 1015.11 1015.04 1015.05 1014.92
995.41 995.88 996.36 996.39 996.88 997.59 998.58 999.25 999.71 1000.23 1000.75 1001.46 1002.38 1002.99 1003.40 1003.98 1004.30 1004.62 1004.99 1005.39 1005.82 1006.28 1006.71 1007.38 1008.19 1008.72 1009.06 1009.71 1010.34 1010.79 1011.15 1011.51 1011.94 1012.17 1012.41 1012.61 1012.80 1013.09 1013.58 1014.16 1014.35 1014.56 1014.54
995.56 995.52 996.10 996.78 997.23 997.55 998.00 998.51 999.47 999.90 1000.15 1000.55 1001.03 1001.68 1002.25 1002.75 1003.09 1003.59 1003.92 1004.24 1004.59 1004.89 1005.51 1006.38 1006.99 1007.55 1008.26 1008.89 1009.46 1009.87 1010.22 1010.65 1010.93 1011.28 1011.62 1011.89 1012.13 1012.34 1012.72 1013.05 1013.82 1014.38 1014.68
996.17 996.35 996.55 996.85 997.27 997.73 998.18 998.82 998.63 998.88 999.68 1000.32 1000.93 1001.19 1001.42 1001.82 1002.05 1002.45 1002.88 1003.11 1003.40 1003.84 1004.36 1005.06 1005.89 1006.51 1007.18 1007.83 1008.45 1008.90 1009.20 1009.61 1009.98 1010.27 1010.80 1011.14 1011.42 1011.63 1011.93 1012.43 1012.95 1013.72 1014.54
996.59 996.64 997.02 997.19 997.34 997.76 997.87 998.48 998.74 998.92 999.57 1000.22 1000.65 1000.94 1001.03 1000.87 1001.10 1001.65 1002.07 1002.38 1002.72 1002.86 1003.22 1004.00 1004.72 1005.50 1006.13 1006.75 1007.37 1007.84 1008.23 1008.68 1008.99 1009.46 1009.96 1010.36 1010.75 1011.14 1011.53 1012.02 1012.51 1013.15 1013.76
997.15 997.47 997.58 997.72 997.81 997.73 997.88 998.23 998.77 999.13 999.41 999.77 1000.09 1000.42 1000.53 1000.64 1000.63 1000.99 1001.42 1001.68 1001.95 1002.20 1002.41 1002.87 1003.54 1004.34 1005.01 1005.68 1006.37 1006.73 1007.24 1007.77 1008.20 1008.63 1009.11 1009.54 1010.00 1010.57 1011.09 1011.62 1012.12 1012.73 1013.34
997.67 997.99 998.24 998.25 998.34 998.43 998.28 998.49 998.70 999.05 999.27 999.51 999.85 1000.05 1000.29 1000.41 1000.44 1000.52 1000.65 1001.05 1001.11 1001.29 1001.43 1001.72 1002.43 1003.20 1003.84 1004.39 1005.05 1005.69 1006.13 1006.76 1007.27 1007.73 1008.34 1008.83 1009.41 1010.03 1010.59 1011.15 1011.73 1012.22 1012.63
998.54 998.51 998.51 998.64 998.71 998.71 999.06 999.18 999.31 999.30 999.18 999.38 999.64 999.82 999.92 1000.00 1000.15 1000.15 1000.10 1000.25 1000.56 1000.71 1000.90 1001.11 1001.50 1002.08 1002.64 1003.34 1003.93 1004.54 1005.19 1005.86 1006.49 1006.92 1007.41 1008.07 1008.79 1009.45 1010.11 1010.69 1011.23 1011.77 1012.17
999.32 999.32 999.35 998.95 998.95 999.27 999.37 999.67 999.74 999.70 999.82 999.57 999.60 999.76 999.73 999.69 999.70 999.71 999.69 999.58 999.67 1000.01 1000.28 1000.45 1000.69 1001.15 1001.83 1002.43 1003.05 1003.63 1004.32 1005.14 1005.83 1006.29 1006.69 1007.34 1008.06 1008.79 1009.57 1010.36 1011.03 1011.56 1012.16
999.80 999.64 999.50 999.40 999.26 999.38 999.59 1000.03 1000.18 1000.01 1000.08 1000.03 999.68 999.56 999.46 999.40 999.36 999.25 999.08 999.04 999.11 999.18 999.46 999.75 1000.11 1000.52 1000.97 1001.23 1001.76 1002.47 1003.38 1004.33 1005.25 1005.80 1006.29 1006.93 1007.58 1008.30 1009.08 1010.01 1010.82 1011.32 1012.00
999.53 999.31 999.29 999.21 999.32 999.40 999.61 999.84 999.88 999.90 1000.01 1000.01 999.96 999.49 999.29 999.09 999.06 998.95 998.75 998.60 998.56 998.56 998.88 999.15 999.45 999.77 1000.21 1000.61 1001.31 1002.20 1003.19 1003.83 1004.49 1005.59 1006.58 1007.11 1007.63 1008.37 1009.00 1009.59 1010.30 1010.83 1011.41
999.31 999.20 999.11 999.33 999.69 1000.03 999.80 999.65 999.72 999.61 999.84 999.94 999.87 999.43 998.94 998.71 998.64 998.65 998.66 998.50 998.20 998.22 998.28 998.58 999.04 999.43 999.88 1000.55 1001.52 1002.19 1003.33 1003.80 1004.32 1005.19 1006.30 1007.41 1008.12 1008.63 1009.55 1010.19 1010.73 1011.24 1011.53
999.77 1000.06 999.95 1000.32 1000.13 1000.18 1000.16 1000.03 999.73 999.75 999.92 1000.04 999.96 999.57 998.87 998.55 998.49 998.58 998.54 998.53 998.44 998.22 998.23 998.51 998.84 999.35 1000.15 1000.39 1001.28 1002.39 1003.47 1003.98 1004.52 1005.08 1005.91 1007.00 1008.32 1008.78 1009.39 1010.24 1011.07 1011.92 1012.25
1002.86 1002.21 1001.09 1000.95 1000.88 1000.71 1000.35 1000.02 999.76 999.63 999.77 999.72 999.54 999.22 998.92 998.50 998.30 998.33 998.44 998.47 998.60 998.62 998.48 998.88 999.10 999.50 1000.35 1000.67 1001.19 1002.34 1003.41 1004.35 1004.80 1005.19 1005.69 1006.83 1007.97 1008.43 1009.04 1010.00 1011.56 1012.68 1013.46
1003.29 1002.90 1002.36 1001.40 1001.18 1000.81 1000.51 1000.06 999.59 999.45 999.35 999.29 999.08 998.76 998.69 998.70 998.29 998.01 998.00 998.18 998.36 998.56 998.89 999.14 999.32 999.56 1000.26 1000.66 1001.29 1002.08 1003.37 1004.65 1005.41 1005.67 1005.96 1006.78 1007.44 1008.13 1008.75 1009.79 1011.34 1012.56 1013.37
1003.87 1003.28 1002.68 1002.02 1001.54 1000.86 1000.44 999.84 999.28 998.84 998.61 998.47 998.34 998.19 998.11 998.19 998.23 998.05 997.78 997.84 998.22 998.53 999.00 999.23 999.49 1000.07 1000.19 1000.87 1001.62 1001.85 1002.82 1004.03 1004.95 1005.42 1006.48 1007.35 1007.56 1008.07 1008.88 1009.55 1010.92 1011.93 1012.90
1004.27 1004.00 1003.23 1002.34 1001.48 1000.86 1000.41 999.80 998.88 998.06 997.99 997.66 997.63 997.57 997.54 997.65 997.65 997.78 997.64 997.73 998.16 998.83 999.39 999.89 1000.16 1000.29 1000.81 1001.23 1001.83 1001.81 1001.87 1003.49 1004.09 1005.10 1006.28 1007.35 1007.77 1008.53 1009.54 1010.33 1011.26 1011.92 1012.92
1004.14 1003.98 1003.54 1002.57 1001.77 1000.91 1000.10 999.52 998.69 997.76 997.11 996.91 996.84 996.95 997.10 997.46 997.31 997.33 997.49 998.17 998.47 998.87 999.43 1000.03 1000.52 1000.93 1001.02 1001.89 1001.96 1001.95 1002.12 1002.95 1003.75 1004.70 1005.68 1006.73 1007.34 1007.93 1009.10 1010.10 1011.26 1012.58 1012.58
1004.17 1003.89 1003.62 1002.91 1001.79 1000.96 1000.15 999.14 998.09 997.69 996.67 996.24 996.11 996.08 996.42 996.80 997.08 997.47 997.73 998.05 998.34 998.76 999.07 999.73 1000.30 1000.89 1001.53 1001.64 1002.35 1002.87 1003.08 1003.70 1004.33 1004.88 1005.96 1006.82 1007.72 1008.12 1008.77 1010.06 1010.73 1011.80 1012.67
1004.89 1004.34 1003.55 1003.02 1002.08 1001.10 1000.01 998.94 997.86 997.18 996.52 995.90 995.51 995.34 995.52 996.01 996.62 997.18 998.01 998.21 997.99 997.96 998.43 998.90 999.49 1000.14 1000.86 1001.08 1001.25 1002.05 1003.04 1004.05 1004.66 1006.66 1006.97 1007.13 1008.17 1008.64 1008.29 1009.56 1010.84 1011.43 1012.56
1005.14 1004.55 1003.49 1002.64 1001.49 1000.65 999.50 998.65 997.82 996.95 996.07 995.49 994.96 994.84 994.90 995.29 995.89 997.20 998.59 999.14 998.79 997.73 997.79 997.95 998.30 998.92 999.04 999.93 1000.23 1001.46 1002.04 1003.14 1004.27 1005.50 1006.33 1008.20 1008.41 1007.92 1008.13 1008.89 1010.15 1011.51 1012.19
Wind_Speed
19 20 18 17 17 17 21 22 19 17 14 13 13 12 13 10 11 11 12 14 14 15 15 11 9 7 9 10 8 5 7 6 5 3 4 4 6 7 6 5 6 7 7
18 19 19 16 17 14 20 21 22 19 15 13 12 12 10 11 10 10 12 12 13 15 15 15 13 12 9 10 8 9 5 6 5 6 2 4 5 6 6 6 7 8 5
18 15 19 19 17 17 15 20 22 22 18 17 10 9 8 8 9 11 13 14 16 16 18 17 13 12 11 10 10 8 12 9 7 8 6 3 6 3 5 11 10 10 6
17 14 17 20 18 19 14 18 19 21 21 20 16 16 14 14 14 13 12 14 16 16 16 16 16 14 10 13 11 9 8 8 9 4 9 9 1 2 3 1 7 6 6
12 14 9 8 20 15 12 9 14 20 21 21 20 16 16 12 11 10 14 14 14 17 17 17 17 16 12 12 13 12 13 10 9 7 6 8 8 6 4 7 4 3 4
16 13 14 7 6 12 15 15 14 12 21 23 23 20 21 18 13 13 12 12 12 12 17 18 16 15 15 15 13 13 14 13 11 9 9 5 8 8 6 7 7 7 4
21 20 17 14 13 10 6 10 15 19 18 17 24 25 23 20 20 17 13 13 12 11 16 19 17 15 17 16 13 13 13 14 13 12 11 9 8 4 7 7 6 4 2
6 8 6 4 5 8 9 8 12 18 15 13 13 14 23 15 15 16 13 11 12 12 14 16 17 18 17 15 14 11 12 13 11 16 11 8 8 6 5 4 4 2 3
5 5 2 6 7 5 5 7 14 10 9 8 6 8 10 20 17 17 16 12 12 11 14 15 18 18 17 17 16 13 14 13 13 11 12 10 7 4 4 3 4 4 4
7 7 6 8 7 7 4 2 4 3 5 7 7 10 11 12 17 15 15 14 15 10 13 16 16 18 17 17 17 15 14 15 11 11 11 11 8 5 4 4 4 4 7
3 6 7 11 6 5 1 0 4 5 4 3 5 7 9 10 10 13 15 14 13 16 13 15 16 18 18 17 17 17 15 16 14 10 12 12 8 6 5 4 4 5 5
7 4 6 6 7 10 6 4 7 6 6 7 7 7 5 7 10 11 12 15 14 14 16 15 17 17 18 18 19 18 16 18 17 15 13 10 6 8 7 6 8 6 6
13 8 6 6 5 6 6 9 10 9 4 5 4 4 7 7 8 9 11 13 14 14 15 15 16 18 18 18 18 18 17 16 17 14 13 12 11 9 6 7 6 4 3
13 12 11 6 5 6 7 6 7 7 8 5 4 5 6 6 9 10 11 10 12 14 13 15 16 16 16 17 17 18 15 15 14 13 13 12 12 11 9 6 6 5 5
15 13 11 6 5 6 5 5 7 6 6 9 6 5 6 6 7 7 9 11 9 12 13 14 14 14 15 14 17 16 15 15 13 9 8 8 9 11 10 7 7 8 6
14 13 15 11 10 7 6 9 8 5 5 6 10 7 6 5 6 7 7 7 9 11 12 15 15 15 12 14 16 14 12 14 13 10 7 6 9 9 13 11 11 11 10
13 16 6 9 9 13 9 6 7 4 5 6 10 10 7 6 6 6 5 7 8 8 13 13 14 16 9 17 15 14 10 12 11 11 10 7 5 10 9 11 13 11 10
14 12 13 13 10 12 14 11 4 5 5 7 9 11 8 6 6 6 6 5 3 3 2 3 4 6 5 15 17 15 10 8 10 11 12 11 10 10 13 11 9 7 7
17 17 8 7 10 13 15 14 8 6 7 8 8 8 8 7 6 7 7 4 4 3 4 3 6 8 6 10 19 13 9 8 8 9 11 13 11 14 17 14 11 7 4
17 16 17 13 11 12 14 15 10 8 9 7 9 7 6 10 7 7 7 4 4 4 3 5 6 10 9 12 15 14 9 8 6 5 8 14 14 17 17 14 11 9 4
20 21 20 16 16 15 15 17 15 12 10 7 8 8 7 7 8 7 6 5 5 5 5 5 5 6 9 13 14 18 11 11 9 9 7 6 18 17 15 15 9 6 10
18 18 17 18 19 18 17 19 19 15 11 8 8 7 6 6 5 7 6 4 6 5 5 5 2 1 5 9 12 17 17 16 13 11 8 9 17 18 16 10 14 17 10
18 16 17 20 19 19 19 20 20 17 13 11 9 6 5 7 6 6 4 3 5 6 5 5 5 3 3 5 9 12 20 17 12 10 15 22 23 23 16 20 18 9 7
18 17 20 20 21 20 21 21 21 19 17 14 11 7 6 5 5 4 3 5 6 6 6 7 6 5 4 6 5 4 7 10 9 16 15 14 12 11 13 13 9 7 5
19 19 19 19 22 22 23 23 22 20 19 15 12 8 6 7 5 3 2 6 8 9 8 9 9 10 9 9 11 12 9 7 12 10 8 9 9 8 10 9 6 6 6
20 21 23 22 22 22 24 24 23 21 20 17 12 6 5 5 4 4 3 4 9 8 10 10 11 9 9 20 22 20 21 24 20 11 11 7 8 9 10 9 7 6 8
Wind_Direction
208 197 205 187 189 177 167 172 177 185 178 189 192 201 205 204 206 202 205 202 193 194 200 213 197 220 206 208 202 192 197 211 206 237 270 269 221 213 216 213 221 225 223
225 203 194 189 185 183 174 172 178 181 189 191 198 204 202 208 207 211 207 205 197 193 198 203 212 204 213 205 206 196 202 213 192 207 212 255 291 240 219 222 228 231 215
247 210 195 191 178 189 175 181 178 181 188 193 197 198 212 203 205 209 211 206 203 196 199 203 207 213 207 209 207 200 198 207 209 206 168 198 227 221 209 222 221 224 221
231 252 203 188 186 187 183 181 184 183 188 190 192 203 204 206 210 209 210 210 205 204 201 202 205 208 212 213 209 206 203 197 209 198 222 241 186 204 312 8 216 202 218
231 251 255 203 194 181 180 177 186 184 188 191 200 200 211 216 213 210 210 207 207 204 204 202 203 208 213 210 213 206 204 205 210 216 193 226 233 237 228 261 268 234 218
248 257 248 248 236 185 183 187 192 203 190 193 198 204 204 214 213 208 210 208 206 203 206 206 207 208 210 216 205 213 204 209 210 216 222 207 203 214 207 232 237 244 235
217 225 240 238 245 248 216 202 200 211 209 194 196 203 209 206 218 213 209 207 205 204 206 204 205 207 211 211 215 206 215 205 211 208 217 225 227 200 202 219 239 233 257
342 212 215 283 280 227 254 229 192 217 211 210 218 202 209 213 215 220 214 214 212 208 205 201 207 209 208 212 209 215 209 216 209 213 218 215 223 224 222 196 187 251 234
288 285 243 268 267 259 269 274 241 177 180 197 217 240 229 212 217 219 219 225 213 207 199 198 203 208 206 206 208 212 216 207 215 212 211 217 224 222 194 174 163 167 244
308 289 273 245 194 237 232 279 213 185 184 206 212 224 236 236 216 220 224 219 227 218 197 196 199 203 205 204 205 211 213 212 209 210 210 212 215 201 173 173 167 184 228
67 14 2 8 3 18 93 231 168 193 214 251 233 232 232 246 223 214 227 226 224 220 212 193 196 199 202 203 206 211 209 211 207 200 203 207 183 180 173 176 182 202 200
34 358 347 354 346 337 330 253 223 194 205 207 215 233 251 232 234 238 222 224 224 219 221 202 198 199 203 202 204 208 204 210 210 207 203 191 172 189 181 186 199 203 192
7 341 306 292 318 281 24 2 5 345 7 353 323 265 224 228 247 253 230 225 228 226 224 211 205 204 203 202 203 205 206 206 209 202 189 188 178 192 184 189 191 183 152
332 331 329 339 346 353 358 348 332 337 333 302 264 270 269 243 226 235 248 233 220 224 225 222 215 206 205 202 202 200 195 197 203 198 185 182 185 187 179 170 168 151 151
301 298 298 300 294 294 308 312 318 309 325 310 299 278 277 265 263 250 229 237 234 225 224 222 219 212 209 203 197 188 187 189 187 170 161 167 166 161 162 156 166 163 155
282 283 280 285 287 270 251 250 250 262 266 279 292 271 273 259 267 266 259 244 236 223 225 224 218 216 213 184 174 179 187 179 159 149 123 120 123 136 152 158 160 171 159
300 297 329 336 332 347 324 294 262 296 334 310 291 285 259 257 248 262 294 283 242 228 225 221 221 218 192 164 165 157 178 164 157 147 140 124 119 126 111 102 99 77 65
355 10 15 347 348 328 318 314 316 318 306 296 287 285 285 262 242 261 259 256 245 207 195 169 137 126 130 154 151 149 156 145 148 148 145 139 147 143 138 124 103 80 61
5 327 329 330 329 319 310 296 292 268 266 266 272 290 301 263 239 227 241 225 211 208 185 179 168 135 160 145 145 143 140 145 142 140 140 147 151 150 140 126 119 97 59
335 328 332 315 294 292 292 291 282 269 273 274 277 260 274 297 268 246 218 202 186 197 162 185 202 168 172 159 161 141 132 136 142 106 120 148 145 137 137 134 139 136 153
330 326 320 316 313 313 306 291 285 282 272 262 259 257 238 251 276 273 227 186 201 168 174 170 151 169 173 175 177 149 155 156 154 142 132 136 135 129 130 132 141 146 136
321 318 312 308 305 305 302 297 286 269 274 262 264 264 266 255 232 252 245 194 145 153 156 145 89 84 161 182 184 166 150 161 153 151 138 137 128 122 116 108 122 124 124
319 320 315 311 308 303 297 294 291 287 266 255 249 247 281 288 280 241 218 150 166 175 173 171 187 185 144 189 190 174 150 157 144 146 148 144 137 127 118 126 129 137 135
317 322 315 306 301 298 295 288 288 291 283 266 249 222 220 243 283 280 163 187 190 199 185 187 191 170 185 169 159 144 135 115 120 129 134 136 130 123 120 125 129 141 140
314 308 302 299 293 292 289 288 286 287 285 281 273 217 205 202 221 185 274 213 210 200 191 201 188 174 192 195 160 163 154 144 131 119 122 133 140 141 141 134 144 140 163
310 299 290 284 279 274 274 276 279 285 279 282 269 239 188 180 153 159 238 10 335 242 199 186 191 202 210 168 163 159 143 133 140 145 145 157 166 149 153 145 146 170 188